Wind_Speed
7 7 7 6 6 6 6 6 6 6 6 5 5 5 5 5 5 6 6 6 7 8 9 9 10 11 11 12 13 14 15 15 16 18 14 6 6 8 6 8 10 10 9 7 7 6 6 6 6 6 6 5 3 4 4 5 6 4 3 2 2 3 4 6 8 7 4 4 6 6 9 3 7 11 9 9 11 14 17 19 19 20 22 24 25 25 25 24
7 7 7 7 7 7 7 7 7 7 7 7 6 6 6 6 6 6 6 7 7 8 9 10 11 12 13 14 14 16 17 17 19 15 6 4 9 11 7 6 10 12 10 8 7 6 7 7 6 7 7 6 4 4 4 6 7 5 3 2 4 5 6 7 9 8 5 6 7 12 15 7 9 11 8 6 10 12 12 17 19 21 25 25 27 27 26 27
7 7 8 8 8 8 8 8 8 8 8 8 8 8 8 8 8 8 8 8 9 9 11 12 13 14 15 15 16 18 17 19 19 6 6 10 12 10 8 5 6 11 11 9 7 7 7 7 6 7 8 6 4 4 4 5 7 5 3 2 7 8 6 9 12 13 13 12 9 14 15 9 14 14 7 5 9 11 10 16 18 21 28 26 25 26 26 27
8 8 9 9 9 9 9 9 9 9 9 10 10 10 10 10 10 10 10 10 10 11 12 12 13 15 16 17 18 18 18 20 11 4 6 15 11 9 8 7 5 7 11 11 9 8 9 8 7 7 8 5 4 4 4 7 7 4 6 5 6 5 4 11 16 17 18 14 11 13 11 11 17 14 11 8 7 8 14 22 22 23 29 25 23 25 26 27
9 9 10 10 10 10 10 10 10 10 11 11 11 12 12 12 12 12 12 12 12 12 13 13 14 15 16 18 18 18 16 12 1 6 10 17 11 8 6 7 7 5 7 11 12 10 9 9 8 7 6 4 3 3 4 10 9 4 7 11 9 5 4 11 13 15 14 12 12 10 9 14 17 14 16 12 6 13 22 27 25 27 30 25 23 24 27 28
10 10 11 11 12 12 12 11 12 12 12 12 13 13 14 14 15 14 14 14 14 14 15 15 15 16 17 18 18 18 11 4 5 8 16 17 10 8 6 8 8 7 6 9 13 11 10 10 9 8 5 2 4 6 5 10 11 5 7 11 15 13 10 14 14 14 14 12 12 10 13 18 15 16 20 16 17 28 35 33 30 32 33 29 27 27 31 32
12 12 12 13 13 13 14 14 14 14 14 14 15 15 15 16 16 16 16 16 16 16 17 17 17 17 18 18 19 18 10 11 16 17 18 14 10 9 9 11 10 9 8 8 11 12 12 11 12 9 4 1 5 8 6 7 10 7 5 6 14 17 17 22 21 18 19 18 20 18 17 21 16 14 15 15 23 37 42 38 37 37 36 34 33 33 34 34
13 13 14 14 14 15 15 16 16 16 16 16 17 17 17 18 18 18 18 18 18 18 18 19 18 18 19 19 20 17 14 18 20 16 14 9 9 12 13 15 14 12 10 9 10 11 12 13 14 10 4 4 6 6 5 5 6 7 8 8 9 12 17 23 23 21 22 23 27 20 17 28 28 19 17 22 32 40 40 39 37 34 31 30 32 30 29 30
14 14 14 15 15 16 16 16 17 17 18 18 19 19 19 20 20 21 20 20 20 19 20 20 20 20 19 20 19 15 19 21 15 11 10 10 14 16 18 18 16 14 11 11 10 11 13 13 15 13 8 7 6 5 5 5 5 8 12 11 8 12 16 21 22 21 20 23 23 12 14 31 31 18 18 25 31 31 27 31 29 23 24 26 27 27 26 26
14 14 14 15 16 16 17 17 17 18 18 19 19 20 21 21 22 22 22 22 21 21 21 20 21 20 19 21 16 12 19 19 12 13 14 16 20 20 21 19 17 15 13 13 12 13 13 12 11 10 11 8 5 6 6 6 5 7 9 10 13 16 19 19 18 19 17 19 21 12 12 29 25 9 9 19 26 26 24 29 28 23 27 29 29 29 28 27
15 15 15 16 16 17 18 18 18 19 19 20 20 21 21 22 23 23 23 23 22 22 22 21 21 20 20 22 18 16 23 23 19 22 21 22 23 23 23 20 19 16 14 14 13 13 13 13 10 6 6 5 5 5 7 10 8 8 6 8 15 14 18 19 15 18 14 14 21 17 11 21 16 4 16 33 34 29 28 32 33 30 33 33 32 32 30 31
15 15 15 15 16 17 18 18 19 19 20 20 20 20 21 22 23 24 24 23 22 21 21 20 19 20 19 22 28 28 29 28 25 26 25 25 25 25 24 21 21 17 15 15 13 13 11 13 14 10 7 4 2 1 5 8 5 8 4 5 12 8 14 18 13 15 12 7 10 10 5 11 8 11 29 41 34 26 25 30 34 34 35 33 33 32 31 31
14 14 14 14 15 16 17 18 18 18 19 18 19 20 20 22 22 23 24 22 22 21 21 20 19 20 17 21 31 31 27 26 25 25 25 26 27 27 26 24 22 18 16 14 13 13 12 12 13 14 12 7 3 3 5 3 3 7 1 0 7 7 9 10 5 5 7 5 6 8 3 7 8 20 37 38 29 25 23 27 32 32 32 31 30 32 33 32
11 12 12 12 13 14 15 15 16 17 17 17 18 18 19 20 21 22 22 22 21 20 21 20 19 18 16 22 31 30 27 27 27 27 27 27 28 28 28 25 22 18 14 13 14 14 12 11 11 13 13 12 10 8 6 5 3 4 2 1 2 3 6 5 2 3 2 5 11 10 5 8 8 21 39 36 24 21 22 25 29 29 31 31 32 33 35 37
9 9 10 11 11 12 12 13 15 15 15 16 17 18 19 19 20 20 20 21 20 19 20 19 19 16 13 21 28 26 27 27 26 25 25 25 26 28 27 23 20 16 13 13 14 14 12 9 9 9 9 12 11 5 4 4 3 2 2 4 2 3 6 10 8 7 8 5 11 10 5 8 8 20 34 31 20 16 19 23 25 29 34 35 37 38 39 41
7 7 8 8 9 10 11 12 13 14 15 15 16 18 18 19 19 19 19 18 17 18 17 16 18 14 8 14 22 23 26 27 25 24 23 23 23 25 24 20 15 14 13 14 13 13 11 8 9 9 6 7 5 2 3 4 4 3 2 5 5 5 4 7 12 10 10 4 6 9 7 6 7 15 25 25 21 15 14 21 27 33 38 39 41 41 42 44
5 5 6 7 8 9 10 11 12 14 14 16 17 18 19 20 18 17 17 16 15 15 15 13 12 10 10 14 20 25 26 23 22 22 23 23 21 21 21 18 14 12 12 12 12 10 10 10 7 5 4 2 2 4 1 2 5 4 2 5 5 6 5 3 10 9 4 6 6 8 8 12 10 11 20 26 29 24 19 24 30 36 39 41 43 42 43 46
4 5 5 6 8 9 10 11 12 13 14 16 17 19 19 17 16 16 15 13 10 8 8 9 7 3 9 15 16 19 19 17 17 16 17 19 19 18 16 14 12 11 9 8 9 10 10 7 4 1 1 1 1 5 4 7 8 7 6 5 3 4 6 6 8 7 2 3 6 4 9 16 14 12 20 31 33 29 30 32 33 36 38 40 42 42 44 47
5 5 5 6 8 9 10 11 13 14 15 15 17 19 17 15 15 13 9 8 6 5 5 6 8 4 6 10 12 15 17 19 17 16 17 16 15 14 12 11 11 11 9 4 5 10 10 4 4 2 2 6 9 9 12 14 12 9 7 5 5 6 6 8 11 9 4 6 6 9 16 16 14 14 16 28 31 25 33 39 35 34 35 37 39 42 44 48
6 5 6 6 7 9 10 12 13 15 17 17 19 18 14 14 11 5 8 14 13 12 14 15 16 18 19 20 21 21 21 21 20 19 18 16 12 11 12 11 10 9 7 4 4 8 9 5 3 6 10 15 16 12 14 14 7 4 3 5 7 7 9 9 12 10 1 3 7 11 19 16 15 15 12 24 29 19 24 32 34 35 35 35 37 41 44 47
7 7 7 8 8 10 11 12 13 15 17 18 20 17 11 11 7 5 15 20 19 19 22 25 25 28 30 30 29 28 23 19 22 21 17 15 12 9 11 11 8 5 4 5 4 3 6 7 8 12 17 14 9 7 10 10 6 5 5 7 7 7 12 10 11 12 0 1 7 8 18 19 15 14 12 19 20 18 23 25 29 35 37 37 36 39 45 48
10 9 9 10 10 11 11 12 13 14 15 16 18 16 12 13 10 11 13 14 22 25 23 25 28 32 33 31 33 34 25 17 21 22 16 15 14 10 10 10 6 3 3 4 3 1 4 6 11 17 14 5 2 3 5 6 6 8 5 6 7 4 9 9 8 11 3 1 7 7 16 18 13 14 14 17 18 23 34 29 26 33 38 42 39 38 44 46
12 12 12 12 11 11 11 11 12 13 14 14 16 15 14 16 15 16 12 9 18 23 23 27 29 32 33 31 33 33 25 17 19 22 20 16 15 12 10 9 5 3 4 6 7 6 5 6 14 18 10 5 5 3 6 2 4 6 5 5 8 3 5 8 5 6 4 3 7 10 16 15 11 14 14 21 25 27 34 32 31 36 39 45 46 43 40 40
14 14 14 14 13 11 11 12 13 12 13 15 15 13 15 18 17 17 13 8 9 13 21 27 24 25 27 26 24 22 20 17 15 16 18 18 15 9 8 8 5 3 6 10 12 12 10 7 9 10 7 7 9 3 3 3 6 7 8 7 10 9 10 10 5 7 6 5 5 7 15 13 7 9 9 13 16 18 25 29 32 37 42 48 49 44 39 38
15 16 16 16 16 14 14 14 12 10 13 15 13 12 15 17 16 17 12 6 6 8 12 14 12 13 15 14 14 12 10 11 14 15 14 16 17 9 4 8 6 4 8 10 10 11 10 8 3 3 4 7 7 7 6 6 8 8 6 10 16 15 11 10 8 7 6 5 4 5 8 10 2 6 6 6 3 7 14 17 23 35 44 43 36 35 38 38
17 17 18 18 17 17 16 14 12 11 14 14 12 13 15 15 15 16 9 3 4 4 3 4 3 3 3 4 6 6 4 4 8 14 14 14 18 12 3 5 5 4 7 6 4 5 5 7 5 5 6 6 5 6 7 9 8 9 5 11 15 12 9 11 9 4 2 5 3 4 1 10 6 3 7 7 3 7 10 10 18 31 36 27 19 25 32 32
20 20 20 20 19 18 16 14 14 14 13 12 12 12 13 13 13 13 7 3 5 2 3 2 3 1 2 2 6 8 3 3 3 4 12 13 16 12 4 4 3 2 4 3 2 3 4 3 3 4 4 6 4 6 7 10 6 7 4 7 9 8 9 8 5 4 4 4 3 2 4 6 12 5 5 7 6 7 12 13 17 21 20 18 18 26 29 27
22 22 22 22 19 16 15 16 17 15 12 12 12 11 11 11 10 9 4 2 4 2 3 1 3 2 2 5 10 7 2 3 3 1 5 9 12 8 4 5 5 3 3 4 4 3 3 4 5 6 5 4 6 6 7 12 6 6 2 5 5 5 5 4 4 5 2 4 4 4 5 2 12 6 3 1 4 7 13 16 16 14 15 19 23 27 25 22
19 19 20 19 17 15 15 16 15 13 12 11 9 10 10 8 6 6 3 3 3 3 1 1 2 2 3 5 6 3 3 4 2 2 3 5 10 6 1 4 5 4 4 5 7 5 1 3 6 8 6 5 8 4 8 13 8 4 5 5 4 4 2 4 4 3 3 4 5 6 6 2 11 7 4 4 2 7 11 12 11 10 15 23 25 24 20 17
18 17 18 18 16 15 15 14 13 12 11 9 8 9 8 4 3 3 4 4 2 2 0 1 1 2 2 3 1 3 2 2 2 5 4 5 9 7 1 2 2 2 4 4 6 8 4 1 2 5 6 6 5 3 4 9 6 4 6 4 5 4 3 4 1 4 2 6 5 10 12 6 7 6 4 3 4 6 6 7 9 9 14 22 21 18 15 14
18 17 17 17 16 15 14 13 12 11 10 8 7 5 4 2 3 3 7 1 2 3 1 1 2 2 2 2 2 2 1 2 2 6 3 3 5 4 1 1 0 2 3 4 5 7 4 2 1 4 6 5 6 3 1 1 4 4 3 3 3 4 3 4 4 3 2 8 5 10 13 10 9 6 2 5 6 5 5 6 9 9 11 17 15 12 14 19
18 17 17 17 17 17 15 15 14 12 9 7 5 2 1 1 1 6 5 3 2 2 1 0 2 2 2 3 1 2 0 2 2 4 3 2 3 3 3 4 3 1 4 3 3 6 3 5 3 1 5 7 5 2 2 3 3 4 3 3 0 4 3 2 3 1 4 8 5 6 7 6 11 8 5 10 12 10 8 8 10 10 12 16 16 15 19 23
19 18 18 17 17 16 14 14 12 11 9 5 3 2 3 2 5 4 2 1 2 1 1 1 1 1 1 2 3 2 0 2 3 3 2 3 1 3 5 5 5 2 4 1 2 5 4 4 2 2 3 7 9 5 3 2 4 6 5 5 5 2 2 4 3 2 5 6 3 3 4 3 7 6 7 13 15 12 7 10 16 15 15 17 18 20 22 21
21 20 20 19 17 16 14 13 11 10 9 6 4 3 2 7 6 2 2 5 3 2 2 2 2 2 1 3 4 3 2 3 2 3 1 2 1 3 3 4 4 4 2 1 2 2 4 7 3 4 2 5 10 8 4 3 4 6 5 5 5 5 4 5 4 5 6 4 2 1 3 4 3 3 7 10 10 10 8 9 12 12 12 13 15 17 18 15
22 22 22 21 20 18 15 14 14 12 10 8 5 3 5 8 4 1 4 5 2 3 4 1 2 3 3 3 4 3 5 4 1 3 2 2 3 3 3 3 5 5 3 2 2 2 4 8 6 3 1 6 8 4 2 4 1 3 3 3 3 5 4 3 4 4 3 2 2 2 4 5 4 6 8 7 8 10 10 7 5 7 9 9 11 13 12 12
24 23 24 24 22 19 17 16 15 12 13 10 4 4 9 7 3 3 3 2 2 2 2 3 1 3 5 3 3 3 4 3 1 1 2 3 3 4 4 3 6 8 7 4 2 2 4 6 3 1 1 4 6 2 2 2 3 0 3 3 4 3 4 2 5 1 1 4 5 5 7 5 5 8 6 4 5 6 7 6 6 9 10 9 10 11 9 11
26 25 26 27 25 20 19 18 14 14 16 11 4 6 6 4 6 6 3 2 1 2 2 3 3 4 4 3 2 2 1 1 2 2 2 2 2 4 4 4 5 10 11 7 2 3 4 6 4 4 4 3 2 1 1 1 4 4 3 4 2 1 2 1 2 2 2 7 6 6 12 10 7 8 5 6 9 8 5 5 5 7 8 9 11 11 9 15
26 26 27 28 26 22 21 18 14 18 17 8 7 10 5 4 8 8 5 3 1 1 2 5 5 3 3 4 4 2 3 2 1 2 2 3 4 4 5 4 4 8 11 6 1 2 2 5 5 3 3 3 2 1 2 2 2 4 3 2 1 2 3 1 2 2 5 8 5 6 12 10 7 9 9 10 14 12 6 4 6 6 7 11 12 10 14 21
17 18 18 17 18 19 20 18 19 22 14 5 8 10 5 5 7 7 9 8 4 2 3 5 5 3 3 4 4 2 3 4 2 2 3 3 4 4 4 2 2 3 5 5 3 3 2 2 4 1 1 2 3 1 3 2 1 0 1 2 1 2 3 2 1 1 4 8 7 7 9 7 7 10 12 11 11 10 7 5 6 7 10 13 12 12 20 26
7 7 6 5 8 11 16 19 22 20 10 4 9 7 3 4 6 9 13 10 4 3 4 4 4 5 5 4 5 4 3 3 3 3 3 3 4 4 2 2 2 1 1 4 3 2 2 3 5 1 2 3 2 4 6 4 3 1 1 2 2 2 1 2 2 2 3 6 7 7 8 7 5 7 10 8 6 5 7 7 7 9 11 12 12 16 22 27
4 2 2 5 7 8 17 20 16 11 5 5 8 8 6 6 5 6 10 12 9 7 5 4 4 5 5 4 5 3 2 3 4 4 4 4 5 4 2 1 3 2 3 3 3 2 1 3 4 4 5 6 8 7 7 9 7 5 5 6 7 6 3 4 5 4 4 6 7 8 9 7 3 6 9 8 5 5 7 9 8 10 14 16 19 24 25 26
6 2 1 4 5 9 19 15 8 6 5 6 8 7 6 7 7 7 7 9 9 6 5 5 5 6 5 6 6 3 2 4 4 5 4 5 6 6 3 4 3 2 2 1 3 5 4 3 4 8 8 10 13 7 5 8 5 3 4 5 6 6 5 6 9 5 5 7 6 8 10 6 4 7 12 13 14 11 9 9 10 14 20 23 26 28 26 24
6 6 5 5 2 13 17 7 5 6 4 7 8 9 8 5 3 5 5 6 6 4 4 4 4 7 6 6 7 5 4 5 6 8 6 4 5 3 5 10 8 3 4 3 2 1 0 2 4 8 7 8 12 6 1 3 3 0 3 4 4 4 4 7 7 3 4 6 6 8 9 4 4 8 11 13 16 16 12 9 8 13 19 23 26 26 26 24
5 10 8 6 11 18 13 4 5 6 6 8 8 11 13 9 7 8 6 4 4 3 3 3 5 8 7 5 5 5 5 5 6 7 6 4 4 5 15 15 9 4 3 2 2 4 2 1 2 4 4 5 7 6 2 2 2 1 4 4 5 5 8 9 6 4 5 6 9 11 9 4 3 5 7 9 12 15 11 12 18 18 21 24 26 27 28 28
3 7 9 9 16 17 9 3 4 4 6 10 9 10 12 10 12 16 12 7 8 7 3 4 4 4 4 2 1 2 4 4 3 4 2 2 3 4 14 15 10 6 6 7 7 4 2 3 3 4 6 6 8 7 3 1 1 2 2 4 6 7 9 9 7 7 7 8 11 11 9 7 5 5 7 8 9 11 11 21 27 23 21 23 25 27 28 28
1 2 3 4 11 15 13 9 5 3 4 7 7 8 11 11 11 13 12 10 13 13 8 6 4 3 3 2 2 5 5 5 5 3 3 3 2 2 8 9 9 7 6 9 12 5 1 2 5 8 10 9 10 9 6 6 6 6 7 9 9 8 8 7 6 7 9 9 10 11 11 12 11 9 8 9 12 12 12 16 19 20 22 23 24 26 27 28
1 1 1 1 3 7 9 9 6 3 3 4 3 4 9 11 7 6 8 7 7 7 6 5 5 4 5 3 3 5 4 4 6 5 4 3 2 4 7 3 6 8 7 7 10 4 2 2 5 9 12 10 10 11 11 11 11 10 11 12 13 12 11 10 11 11 11 10 9 9 11 15 14 9 6 8 10 10 11 12 14 16 19 21 24 28 29 29
1 1 2 1 1 2 4 4 4 3 6 6 3 3 5 6 4 2 3 3 2 2 2 3 2 1 3 2 2 3 3 4 4 3 1 1 2 4 6 1 2 8 9 5 6 5 1 4 5 9 11 8 9 11 11 11 11 10 10 12 13 14 14 15 17 16 13 11 11 11 14 19 16 7 5 6 6 8 8 11 13 16 18 21 24 26 28 30
3 3 3 1 1 2 3 4 5 4 4 4 3 4 6 8 9 6 2 4 4 2 3 4 0 3 2 2 1 4 4 4 4 1 2 1 2 1 4 3 0 8 10 6 4 1 3 3 5 7 8 9 10 11 11 12 12 11 12 12 12 14 16 18 17 15 15 17 18 17 19 18 8 4 5 5 7 8 8 10 14 17 20 21 22 23 25 26
3 3 2 3 2 4 5 5 3 3 3 3 4 6 7 8 9 6 3 4 6 4 2 1 2 4 3 4 2 3 3 2 3 1 2 2 1 0 1 2 1 6 7 4 2 3 4 4 6 7 8 11 13 12 11 12 13 14 14 13 14 17 19 18 16 15 16 18 16 16 16 10 1 5 5 7 9 10 9 11 13 16 19 20 21 22 21 22
6 5 2 3 2 3 3 2 2 2 2 3 4 4 5 6 5 3 2 2 1 1 3 4 4 3 1 2 2 3 3 2 1 2 0 1 3 3 2 2 4 6 6 3 2 2 3 4 6 7 7 9 12 14 15 13 12 14 15 16 19 19 17 16 15 13 12 11 11 12 10 4 2 3 3 5 8 10 9 10 10 11 17 20 21 21 21 20
8 8 5 1 2 2 1 1 1 2 3 2 1 2 1 1 5 5 2 1 8 11 9 6 2 0 1 3 3 2 3 4 5 8 8 8 11 12 12 13 12 8 5 3 2 3 4 4 5 6 7 9 12 14 13 10 9 11 12 13 16 16 14 15 12 7 5 4 5 6 3 1 3 4 4 5 6 7 9 11 9 7 13 19 19 20 21 20
Wind_Direction
325 327 328 328 329 330 330 333 334 334 337 336 339 344 345 350 353 356 357 357 355 353 353 352 350 347 345 343 341 340 339 337 333 328 326 343 5 345 310 260 239 240 244 237 233 230 227 217 213 213 211 207 213 206 189 189 171 152 111 125 229 201 202 195 189 203 189 263 273 303 325 301 281 296 287 280 266 264 268 263 260 258 259 262 265 268 268 269
313 316 316 318 318 319 320 321 321 322 322 321 324 324 326 331 332 337 339 340 339 337 338 338 337 335 335 334 333 332 333 332 329 331 353 22 357 352 341 283 244 237 237 234 234 231 233 228 221 217 212 212 217 206 195 197 181 167 114 147 229 205 209 202 198 210 203 252 275 292 302 287 270 287 290 280 266 270 275 270 265 263 265 265 265 268 270 269
301 303 304 306 307 309 310 310 312 311 310 310 310 311 313 313 316 319 320 323 323 324 325 326 327 326 327 327 327 329 331 331 324 331 47 6 348 348 346 327 260 238 232 228 225 226 229 227 230 223 214 217 218 206 198 192 194 200 152 187 244 220 229 235 230 235 240 262 286 292 295 278 274 281 269 263 278 279 261 263 265 261 269 274 272 272 272 271
293 294 295 296 298 299 300 301 302 301 301 300 301 302 302 303 304 305 307 310 310 312 313 315 318 318 320 321 323 326 330 331 314 187 14 351 345 342 351 357 327 259 238 231 228 230 229 218 219 219 215 221 220 215 213 202 199 190 167 204 238 198 232 246 247 256 259 268 272 278 292 286 284 280 253 255 296 282 252 260 265 265 276 284 282 279 275 271
290 291 292 292 291 292 292 293 293 293 294 294 295 296 296 297 297 299 300 300 302 304 305 307 309 311 313 315 316 320 332 341 253 182 326 333 330 323 337 348 343 312 254 237 238 239 231 217 209 210 214 223 196 190 233 211 193 183 208 230 240 199 233 257 258 270 272 270 269 272 283 284 288 278 255 237 231 262 266 273 275 278 284 287 284 281 277 271
288 290 291 291 291 291 291 290 290 290 290 290 291 291 292 293 293 295 295 296 298 298 300 302 304 306 308 310 310 312 319 308 260 275 307 315 310 298 302 320 328 319 285 246 241 236 229 217 208 207 202 218 193 194 238 212 194 230 243 236 247 238 243 265 264 271 279 273 267 268 276 283 286 282 268 231 230 266 278 280 279 282 284 285 281 275 274 272
288 290 290 291 291 291 292 292 292 291 290 290 290 289 290 290 290 291 291 293 293 295 297 297 300 301 303 305 304 303 282 265 287 293 297 301 291 288 294 305 313 307 293 264 246 232 229 218 212 210 187 244 217 209 240 217 197 229 268 241 251 249 249 266 269 270 276 273 272 274 281 282 270 276 278 235 248 276 284 283 279 282 283 281 277 273 274 274
286 288 288 288 288 289 290 291 292 292 292 292 291 291 290 291 290 290 290 290 290 292 292 293 295 296 299 300 300 296 270 278 296 293 290 289 283 291 294 298 303 301 290 273 258 237 233 224 221 215 195 233 218 207 223 230 211 213 244 250 254 256 259 272 277 275 275 273 277 278 273 272 268 270 274 259 266 279 285 285 281 282 283 278 275 274 273 274
284 285 285 285 285 286 286 287 289 289 290 291 291 291 291 291 290 289 289 289 290 290 289 291 291 292 294 292 294 288 277 289 298 285 286 285 288 292 289 292 295 295 284 267 255 239 234 231 231 226 231 237 219 222 197 209 236 211 230 252 263 265 271 277 276 275 276 273 271 265 261 270 275 281 273 267 273 281 286 286 283 281 280 278 278 278 275 273
281 281 282 283 282 283 283 284 284 285 286 287 287 288 288 287 286 286 285 286 286 286 286 286 286 288 287 285 283 274 282 294 292 286 291 288 290 288 285 289 289 285 276 265 253 244 241 240 242 233 243 250 230 227 188 193 233 235 247 266 270 271 277 274 270 273 273 271 259 227 245 267 274 288 265 268 277 282 284 284 283 279 279 282 281 282 280 275
278 279 280 280 281 282 282 283 283 283 283 284 284 284 284 283 283 282 281 282 281 281 281 279 281 280 278 278 263 259 282 289 288 289 289 288 288 283 283 283 281 278 269 265 256 253 252 244 241 223 230 238 229 223 212 223 239 270 296 295 281 285 289 274 263 268 259 267 255 221 234 271 275 251 251 270 278 277 280 284 284 282 282 285 284 284 282 281
278 279 280 280 282 282 284 285 285 285 284 285 285 283 283 282 282 281 280 281 280 279 278 277 276 272 273 271 261 267 283 284 283 285 282 283 282 279 280 278 276 272 265 263 255 253 249 241 236 227 229 220 236 256 225 232 248 283 314 310 291 314 304 276 258 257 230 242 251 200 228 280 263 240 257 273 280 276 276 280 284 286 287 289 288 288 286 287
282 283 283 284 285 285 287 288 288 289 289 289 288 286 285 283 282 282 282 281 280 278 277 276 273 270 268 265 268 275 283 280 279 278 277 278 276 276 277 274 272 266 260 257 250 247 239 239 233 230 241 234 242 263 251 271 288 286 310 183 297 332 308 268 221 225 207 216 187 155 247 258 240 259 269 277 279 276 275 275 283 288 289 290 290 291 289 289
291 292 293 293 293 294 295 296 296 297 299 299 297 294 290 287 286 285 285 283 280 277 275 273 270 267 258 260 273 279 278 277 276 274 275 275 274 275 273 272 270 264 259 249 244 244 237 234 225 227 242 241 248 264 284 322 315 291 296 224 299 301 285 277 166 154 245 246 173 160 262 244 239 267 275 282 279 275 274 273 281 285 286 288 288 288 287 287
300 302 304 303 305 306 306 307 307 309 312 311 309 306 301 298 295 292 290 286 283 279 274 270 266 262 256 265 274 277 277 277 276 276 275 272 270 270 271 271 268 261 252 240 236 238 233 223 211 215 236 244 248 265 318 338 353 5 276 280 290 210 271 303 294 219 224 247 167 167 253 253 249 258 270 285 285 271 266 270 278 281 283 284 284 284 283 285
306 311 311 314 316 317 319 318 318 320 322 322 319 316 312 309 306 302 297 291 284 277 270 267 263 253 248 273 274 274 277 277 279 280 275 271 267 264 265 264 261 253 241 232 231 231 225 206 203 213 228 244 229 156 19 349 326 336 214 254 260 238 272 314 299 253 208 196 177 201 240 263 258 252 265 283 288 279 264 269 276 277 280 281 281 281 280 282
309 317 320 325 324 324 326 324 326 325 325 328 324 322 321 318 314 309 304 299 289 275 265 258 257 250 247 264 271 274 279 281 283 281 275 272 266 260 257 251 247 240 227 220 221 216 202 191 196 219 230 237 120 116 30 291 269 282 221 240 247 246 261 287 300 291 187 164 213 232 241 252 257 262 272 276 280 285 275 270 274 275 277 277 278 278 278 279
311 321 326 329 326 327 327 326 329 328 329 333 330 329 328 324 322 316 312 312 300 280 265 238 213 234 257 253 261 276 286 288 286 282 278 271 261 254 247 242 238 223 202 198 206 191 184 185 166 171 309 279 148 143 201 231 225 231 227 240 257 242 250 252 266 289 328 215 230 259 255 254 262 270 274 273 274 280 280 276 274 273 274 274 275 275 275 275
307 316 323 327 326 325 327 329 334 334 334 335 336 336 332 331 329 320 325 334 313 287 280 229 200 217 264 262 271 283 288 285 282 278 273 268 258 246 232 227 217 190 166 162 201 184 174 141 104 151 219 227 222 192 206 225 221 226 229 238 260 255 247 241 248 259 296 286 261 263 264 262 268 266 267 273 273 269 273 278 276 273 272 271 272 271 271 271
301 308 315 320 321 322 327 331 336 340 339 338 342 344 344 346 343 321 319 316 298 282 278 264 250 253 263 271 276 278 279 278 276 272 266 263 256 234 208 193 177 172 169 159 189 185 173 172 172 195 210 220 227 210 214 233 246 266 262 253 254 260 264 255 264 270 211 286 257 251 268 270 267 268 262 269 274 265 262 271 275 273 272 269 269 270 271 271
294 301 309 314 316 321 326 331 337 342 343 344 347 355 6 4 355 309 315 310 301 294 283 278 269 260 264 270 270 268 270 274 271 266 262 255 242 215 194 175 153 176 197 153 141 157 174 200 215 214 218 224 230 210 222 248 281 282 257 266 264 252 266 266 273 279 247 255 259 247 271 274 267 269 264 263 269 262 254 256 266 273 276 273 269 269 272 274
290 294 305 311 314 319 323 330 335 338 343 344 348 358 6 356 339 317 315 298 297 300 288 280 271 261 264 268 264 260 259 266 267 260 255 241 218 203 190 170 169 193 157 131 127 216 213 223 231 227 229 256 328 135 183 225 243 255 251 278 277 252 278 276 264 285 324 224 276 283 275 273 266 261 255 250 248 252 256 254 259 268 273 274 271 268 270 274
294 295 302 310 315 318 321 328 331 333 337 341 346 354 353 347 341 331 318 276 288 297 285 276 268 261 264 263 258 254 247 246 256 255 250 232 203 202 196 163 169 172 142 180 201 218 231 233 235 234 233 257 273 110 114 210 239 234 226 254 269 251 275 270 264 315 328 236 274 293 284 279 262 251 245 245 245 252 260 263 263 260 260 267 269 268 268 272
292 292 298 310 314 314 321 328 329 333 335 340 343 344 345 345 344 337 321 275 274 285 277 272 265 259 261 261 256 249 241 236 246 255 250 228 199 197 203 169 148 154 187 207 213 227 239 240 233 228 212 214 245 243 147 246 263 230 210 224 256 251 247 255 289 336 320 286 299 307 295 289 237 223 238 249 251 254 260 263 264 260 257 259 263 266 268 272
283 285 291 303 305 305 313 320 325 332 334 337 336 335 345 346 345 342 330 295 280 274 266 265 262 260 258 259 256 242 235 238 243 249 249 227 206 193 183 173 167 197 211 212 224 241 250 256 244 170 194 199 219 245 208 209 256 258 214 210 239 252 256 265 292 336 336 306 332 15 311 295 189 168 234 275 280 253 252 252 256 258 257 255 257 265 270 274
277 278 283 290 294 298 304 309 313 321 326 329 329 334 343 346 347 344 341 336 294 270 234 238 245 266 246 253 243 198 196 263 256 241 233 223 212 203 175 172 182 216 202 198 230 250 248 247 229 192 198 179 183 251 220 191 241 278 233 207 230 248 259 265 275 304 294 260 287 64 332 286 296 180 221 246 235 248 252 246 248 250 255 262 266 268 272 278
274 274 275 276 281 287 294 297 301 312 318 317 322 330 339 349 353 347 350 348 295 243 130 178 169 43 316 194 160 151 183 298 346 233 211 208 208 205 216 200 192 230 175 150 275 246 202 217 221 196 175 146 171 247 213 172 203 270 235 194 209 226 237 240 237 230 241 279 287 136 131 280 287 266 210 217 208 254 264 257 255 254 268 291 287 275 274 279
272 272 271 269 269 276 284 289 295 307 310 308 315 319 332 346 347 354 20 298 296 101 102 200 146 47 12 156 166 154 23 343 28 50 192 200 203 199 248 227 193 229 175 155 248 253 160 193 206 171 134 155 201 222 173 156 191 250 175 146 171 198 214 173 170 212 261 338 290 199 139 245 276 278 59 161 203 247 259 254 259 268 286 290 282 279 279 282
273 274 275 270 268 273 279 284 291 298 300 303 307 307 324 332 339 23 87 243 318 54 52 257 141 28 52 129 182 216 358 10 64 134 141 181 199 191 280 235 189 228 236 200 237 268 213 209 193 153 144 206 211 196 160 163 198 221 120 98 80 79 71 105 146 146 73 312 256 194 161 208 275 277 73 67 205 237 253 258 264 274 281 279 277 279 282 291
273 274 275 274 273 274 276 281 287 290 293 297 297 305 319 323 21 53 225 240 348 350 22 127 235 308 74 103 281 266 252 291 127 148 129 140 188 195 185 242 171 179 264 266 255 262 263 76 116 171 195 200 164 133 176 176 178 141 114 71 33 34 42 63 77 94 87 277 237 182 181 187 272 279 134 165 215 222 249 277 281 281 281 279 278 282 291 306
271 270 269 270 269 268 270 275 278 282 288 290 293 309 318 338 74 193 237 253 8 294 46 34 317 32 81 88 299 281 219 264 164 148 149 111 165 190 120 242 162 76 322 299 275 274 264 176 196 224 205 161 115 97 317 138 131 127 113 78 17 328 13 34 353 60 170 264 241 182 184 189 235 256 200 260 273 237 230 257 274 282 285 287 296 306 313 320
272 271 269 268 265 262 263 266 271 276 279 281 280 289 23 345 245 218 243 15 353 276 82 338 319 58 46 24 300 257 301 264 183 139 160 135 154 193 189 198 182 337 305 260 275 308 272 216 220 224 198 178 145 123 341 5 105 133 130 129 205 307 343 347 312 114 209 259 262 184 175 205 244 260 275 277 277 257 229 227 251 271 286 297 314 319 315 319
271 271 271 269 266 264 259 258 265 265 261 253 231 129 99 238 245 201 191 267 244 270 85 145 339 87 117 346 281 244 249 237 185 147 166 142 173 245 236 206 163 200 266 237 320 313 289 259 174 110 244 199 168 174 236 247 171 164 156 159 177 197 257 258 252 260 255 269 280 187 173 257 277 281 246 243 257 267 259 244 252 263 278 296 310 311 309 312
267 268 268 266 265 264 256 249 242 239 246 230 168 116 148 233 246 102 157 233 256 334 357 106 52 0 181 236 254 201 223 268 152 136 181 125 182 268 252 231 181 173 227 262 308 257 266 289 216 170 248 188 183 205 205 140 158 186 165 144 174 184 201 226 226 250 263 278 304 193 184 220 238 262 235 230 258 286 286 264 262 268 277 296 307 305 305 307
266 267 265 263 261 257 254 246 230 224 229 208 158 155 220 233 251 242 216 234 282 302 302 18 70 331 286 251 273 224 212 253 95 112 186 176 197 226 208 213 198 168 148 212 257 166 222 269 251 216 217 165 193 244 64 93 179 226 124 112 220 204 184 237 251 238 244 302 291 210 220 223 224 263 263 259 275 283 281 280 292 292 284 289 291 289 292 309
268 268 266 264 260 255 254 245 228 218 211 193 165 216 229 230 217 212 211 193 192 194 308 314 210 247 274 255 278 263 192 212 232 119 213 211 218 226 216 216 195 178 171 189 232 215 228 261 260 229 238 180 196 250 69 147 216 164 117 191 231 174 144 254 284 313 77 269 255 238 258 280 294 284 290 331 310 296 298 295 284 276 270 264 261 259 274 322
268 267 266 263 260 257 252 241 225 214 205 190 202 228 228 228 203 205 208 141 164 131 106 280 238 215 252 252 261 263 160 223 221 166 221 244 243 206 201 248 210 187 200 209 229 248 250 267 243 189 226 242 184 187 335 178 157 132 184 230 234 134 132 165 270 330 274 257 255 253 266 283 295 283 310 348 318 309 321 315 292 267 250 240 238 243 288 335
266 266 266 265 264 258 247 237 217 206 200 193 234 236 226 226 206 199 205 206 267 313 198 244 254 242 237 244 257 226 184 221 182 157 213 235 242 187 163 239 219 196 218 214 196 282 288 281 261 174 209 276 57 93 292 299 158 159 219 272 98 204 247 186 183 229 247 254 253 239 256 272 268 264 280 287 284 287 291 293 302 281 245 241 244 268 320 340
269 268 269 265 259 247 233 222 203 196 196 200 232 232 222 232 229 219 223 230 249 260 240 241 248 271 257 231 251 254 205 206 173 188 218 221 243 199 151 213 212 219 237 178 167 296 358 282 272 93 141 310 15 136 213 272 299 134 320 329 72 184 229 234 192 187 242 256 258 238 241 250 249 258 268 260 259 274 282 282 284 262 244 251 271 314 334 337
263 256 262 231 231 229 204 193 190 191 195 222 228 233 245 244 247 238 232 233 230 220 235 240 224 244 264 251 257 270 245 217 209 221 227 235 259 243 193 183 148 102 1 142 175 325 26 248 254 277 286 296 290 206 184 196 226 201 213 251 243 223 258 283 249 187 239 257 260 254 245 235 240 264 264 245 226 251 282 286 279 274 269 271 296 324 331 334
196 222 268 201 218 204 175 176 188 196 205 234 236 244 256 258 266 257 238 230 229 229 224 216 210 234 263 270 263 250 231 238 222 220 236 239 251 255 231 176 172 164 72 91 188 194 173 234 244 257 267 260 248 221 190 202 211 207 211 213 223 228 234 270 253 208 216 246 248 257 259 246 250 293 290 279 261 257 282 293 296 297 293 294 309 323 334 346
179 200 130 179 233 188 167 172 203 210 205 224 235 247 253 257 263 265 248 226 223 237 241 228 227 238 252 261 260 234 210 237 216 216 243 235 230 239 265 334 333 243 219 227 221 205 180 180 224 242 250 258 264 257 190 197 201 204 217 204 214 210 185 226 249 238 229 240 242 255 262 248 232 275 287 286 284 286 286 281 281 287 294 308 327 341 355 3
199 221 155 113 185 186 173 182 227 207 223 245 249 257 257 259 258 257 252 223 214 233 246 239 232 236 237 240 244 229 215 226 217 222 238 242 240 268 349 357 0 335 286 288 298 310 90 153 236 254 258 270 280 287 128 129 106 123 242 213 205 212 217 235 249 269 264 255 260 262 262 243 208 247 263 271 284 292 287 279 293 315 332 350 2 11 16 14
236 247 224 171 180 189 185 197 215 207 232 245 252 256 255 259 258 253 250 211 199 205 230 244 234 232 231 225 230 234 229 232 243 245 238 235 247 35 36 29 33 35 1 341 316 320 314 220 242 277 279 284 293 295 333 40 67 224 251 243 235 250 268 275 281 294 275 242 245 257 263 256 238 261 271 274 286 290 306 12 34 29 22 22 20 19 18 16
276 261 252 218 202 212 232 248 225 226 223 229 242 249 252 259 252 248 251 243 228 220 230 265 263 255 254 239 241 270 244 222 253 283 284 261 255 44 38 34 46 58 55 43 17 346 280 247 243 260 257 257 274 273 274 341 220 225 271 263 258 248 248 265 276 270 261 236 235 251 267 271 273 284 286 294 309 311 347 33 43 42 34 28 23 20 18 17
334 257 274 250 221 230 248 257 264 261 222 229 236 234 239 249 252 245 240 242 239 232 235 252 266 292 281 240 246 267 254 218 215 249 276 284 271 360 18 36 57 60 68 42 21 18 198 267 256 253 256 255 265 275 295 312 287 279 287 281 283 275 255 262 267 259 269 268 254 256 270 277 278 285 305 335 348 348 4 28 36 35 30 25 23 22 22 21
10 247 192 347 261 241 247 266 283 269 269 283 259 237 237 237 252 247 226 234 238 227 235 233 213 229 241 224 229 253 256 226 223 238 261 281 273 311 335 37 81 49 58 46 19 30 185 285 266 262 269 268 280 292 300 304 293 285 289 283 282 280 272 268 263 261 273 276 266 268 280 283 282 294 351 14 358 353 5 11 18 28 27 23 22 22 22 21
190 263 181 122 304 264 247 283 324 311 291 296 296 302 269 243 256 256 233 292 303 191 237 246 189 219 260 260 234 248 272 260 242 224 166 6 324 319 337 343 113 41 43 46 32 56 196 272 257 261 277 286 302 307 303 299 294 288 287 282 279 278 272 266 264 268 274 272 276 286 284 282 286 310 18 29 0 350 355 358 7 20 22 22 24 23 20 18
230 265 269 297 279 284 300 324 355 346 292 285 277 268 266 266 272 271 281 320 301 253 245 251 115 63 25 353 245 226 247 262 267 234 128 27 318 299 335 312 325 35 29 17 10 49 221 263 266 273 294 301 295 290 287 288 288 285 281 276 276 275 270 268 270 273 270 265 270 277 275 275 288 7 5 353 352 344 343 357 10 17 18 19 20 19 18 16
244 250 290 342 303 278 293 298 317 330 290 263 249 255 262 266 276 290 291 265 264 276 281 247 61 57 26 356 322 234 251 272 274 278 117 96 337 336 341 270 285 4 0 346 326 279 248 276 305 310 307 296 287 280 275 275 277 281 281 277 274 271 269 271 272 269 266 266 269 270 270 272 43 54 350 338 349 351 354 2 8 12 12 13 14 12 11 11
243 248 286 345 306 251 254 277 290 284 266 231 224 261 269 255 274 329 328 272 267 82 84 86 71 47 8 306 286 271 297 354 310 290 90 173 256 282 290 269 298 329 325 286 245 280 279 283 302 304 284 279 285 283 283 286 285 281 276 271 267 265 265 266 264 266 271 278 284 281 275 279 30 17 347 345 350 355 355 346 349 4 7 6 6 3 359 360
246 255 259 255 276 250 176 51 353 220 241 262 275 312 308 4 18 11 299 57 93 96 78 69 99 76 298 254 267 315 353 355 321 299 294 270 261 263 257 255 260 262 268 281 256 231 247 262 276 280 275 274 275 279 292 307 295 275 263 258 260 262 266 267 270 297 323 302 293 292 288 343 318 321 344 348 347 349 340 330 324 340 359 359 356 354 351 348
Height
1552 1552 1551 1551 1551 1551 1550 1550 1550 1549 1549 1548 1548 1548 1547 1547 1547 1547 1546 1546 1545 1545 1544 1544 1543 1543 1542 1541 1541 1540 1539 1539 1537 1536 1536 1535 1535 1535 1534 1534 1535 1535 1535 1536 1536 1536 1536 1536 1536 1537 1537 1537 1538 1537 1538 1538 1539 1539 1542 1546 1545 1546 1544 1537 1536 1534 1530 1527 1525 1523 1523 1524 1522 1520 1520 1519 1518 1518 1517 1516 1516 1515 1514 1513 1512 1512 1513 1512
1552 1552 1551 1551 1551 1550 1550 1550 1549 1549 1549 1548 1548 1547 1547 1547 1547 1546 1546 1546 1545 1544 1544 1543 1543 1542 1542 1541 1540 1539 1539 1538 1537 1536 1535 1535 1535 1534 1534 1533 1533 1534 1534 1535 1535 1536 1536 1536 1536 1536 1537 1537 1537 1537 1538 1538 1538 1539 1543 1545 1542 1540 1535 1530 1529 1528 1527 1526 1523 1523 1522 1522 1521 1519 1519 1518 1517 1517 1516 1513 1513 1512 1511 1511 1510 1511 1511 1510
1551 1551 1551 1550 1550 1550 1549 1549 1549 1548 1548 1548 1547 1547 1547 1546 1546 1546 1546 1545 1545 1544 1544 1543 1542 1542 1541 1540 1539 1539 1538 1537 1535 1535 1534 1534 1534 1533 1533 1532 1532 1533 1533 1534 1534 1535 1535 1535 1536 1536 1536 1536 1537 1537 1537 1537 1538 1537 1541 1543 1537 1533 1530 1528 1527 1526 1525 1524 1523 1523 1521 1520 1519 1518 1518 1517 1515 1515 1514 1511 1510 1509 1507 1508 1509 1509 1508 1508
1551 1550 1550 1550 1549 1549 1549 1548 1548 1548 1547 1547 1547 1546 1546 1546 1546 1545 1545 1545 1544 1544 1543 1542 1542 1541 1540 1539 1539 1538 1537 1536 1533 1533 1533 1533 1534 1533 1533 1532 1532 1532 1532 1533 1533 1534 1534 1535 1535 1536 1536 1536 1536 1537 1537 1536 1537 1537 1537 1537 1531 1530 1529 1526 1525 1524 1524 1524 1523 1522 1521 1519 1516 1517 1516 1515 1516 1512 1508 1507 1507 1506 1504 1505 1507 1507 1506 1505
1550 1550 1549 1549 1548 1548 1548 1548 1547 1547 1546 1546 1546 1545 1545 1545 1545 1544 1544 1544 1543 1543 1542 1542 1541 1540 1540 1539 1538 1537 1538 1537 1533 1532 1532 1533 1533 1533 1532 1532 1531 1531 1532 1532 1532 1533 1533 1534 1534 1535 1535 1535 1536 1536 1535 1534 1535 1535 1533 1530 1528 1529 1527 1523 1524 1524 1523 1524 1522 1522 1521 1517 1515 1514 1512 1514 1515 1507 1501 1503 1504 1503 1502 1503 1505 1504 1502 1501
1549 1548 1548 1548 1548 1547 1547 1547 1546 1546 1545 1545 1545 1544 1544 1544 1543 1543 1543 1543 1542 1542 1541 1541 1540 1539 1539 1538 1537 1536 1538 1538 1533 1532 1532 1532 1532 1532 1532 1531 1531 1531 1531 1531 1531 1532 1532 1533 1533 1534 1534 1534 1535 1534 1533 1533 1534 1533 1529 1528 1527 1527 1525 1522 1523 1523 1523 1523 1521 1520 1518 1515 1514 1511 1507 1510 1509 1501 1498 1501 1501 1500 1500 1501 1501 1501 1499 1498
1548 1547 1547 1547 1546 1546 1546 1545 1545 1545 1544 1544 1543 1543 1543 1542 1542 1542 1541 1542 1541 1541 1540 1539 1539 1538 1537 1536 1536 1535 1536 1535 1532 1532 1531 1531 1531 1531 1531 1530 1530 1530 1530 1530 1530 1530 1531 1531 1532 1532 1533 1533 1533 1532 1531 1531 1532 1532 1529 1526 1525 1525 1523 1521 1521 1522 1522 1521 1518 1519 1518 1513 1511 1509 1504 1503 1503 1498 1496 1497 1498 1497 1498 1498 1497 1496 1495 1494
1546 1546 1546 1545 1545 1544 1544 1544 1543 1543 1543 1542 1542 1541 1541 1540 1540 1540 1540 1540 1539 1539 1538 1538 1538 1537 1536 1535 1534 1532 1531 1530 1530 1530 1530 1530 1530 1529 1529 1529 1529 1529 1529 1529 1528 1529 1529 1530 1530 1531 1531 1531 1530 1530 1530 1531 1531 1531 1527 1524 1523 1523 1521 1520 1520 1519 1520 1518 1516 1517 1516 1508 1507 1508 1500 1496 1498 1496 1493 1493 1494 1495 1494 1494 1492 1492 1492 1491
1545 1545 1544 1544 1543 1543 1543 1542 1542 1542 1541 1541 1540 1540 1539 1538 1538 1538 1538 1538 1538 1538 1537 1537 1536 1535 1535 1533 1533 1530 1526 1527 1528 1528 1528 1528 1528 1528 1528 1527 1527 1527 1527 1527 1527 1528 1528 1528 1528 1528 1529 1528 1528 1528 1528 1530 1528 1525 1523 1522 1522 1521 1520 1519 1517 1517 1517 1515 1514 1515 1513 1505 1504 1507 1495 1489 1493 1491 1491 1490 1490 1491 1490 1489 1489 1488 1488 1488
1544 1544 1543 1543 1542 1542 1541 1541 1540 1540 1539 1539 1538 1538 1537 1536 1536 1535 1535 1535 1535 1535 1535 1535 1534 1534 1533 1532 1532 1527 1522 1525 1527 1526 1527 1526 1526 1526 1525 1525 1525 1525 1525 1525 1526 1526 1526 1527 1527 1528 1528 1527 1527 1527 1527 1528 1524 1521 1522 1521 1520 1519 1517 1516 1514 1514 1515 1512 1510 1511 1509 1502 1503 1507 1492 1483 1488 1488 1489 1488 1486 1488 1486 1485 1485 1485 1485 1484
1542 1542 1542 1541 1541 1540 1540 1539 1539 1538 1538 1537 1537 1536 1535 1534 1534 1533 1533 1533 1533 1533 1532 1532 1532 1532 1531 1530 1529 1522 1520 1524 1525 1524 1525 1524 1524 1523 1522 1523 1523 1523 1523 1523 1524 1524 1525 1525 1526 1527 1527 1526 1526 1525 1525 1523 1522 1521 1521 1520 1517 1517 1514 1512 1511 1511 1511 1508 1503 1505 1507 1502 1503 1503 1488 1478 1484 1487 1486 1484 1483 1483 1482 1482 1481 1481 1481 1480
1541 1541 1540 1540 1540 1539 1538 1538 1537 1537 1536 1535 1535 1534 1533 1532 1531 1530 1530 1530 1530 1530 1530 1530 1530 1529 1529 1528 1522 1518 1520 1522 1522 1522 1522 1522 1521 1520 1520 1521 1520 1521 1521 1521 1522 1522 1524 1524 1525 1525 1525 1525 1525 1524 1522 1520 1522 1520 1521 1520 1516 1516 1512 1505 1506 1506 1506 1503 1499 1503 1507 1504 1499 1492 1480 1477 1482 1484 1484 1482 1480 1480 1478 1478 1478 1477 1477 1476
1540 1539 1539 1539 1538 1537 1537 1536 1536 1535 1534 1534 1533 1532 1531 1530 1529 1528 1528 1528 1528 1528 1527 1528 1528 1527 1528 1523 1516 1517 1519 1519 1519 1520 1519 1519 1518 1517 1518 1518 1518 1518 1519 1519 1520 1521 1522 1522 1523 1524 1524 1524 1524 1523 1520 1520 1521 1519 1521 1521 1517 1518 1510 1499 1502 1503 1502 1501 1498 1502 1505 1499 1492 1483 1474 1476 1480 1481 1480 1479 1477 1476 1475 1475 1475 1474 1473 1473
1538 1538 1538 1537 1537 1536 1535 1535 1534 1533 1533 1532 1531 1530 1529 1528 1527 1526 1525 1525 1525 1525 1525 1525 1525 1525 1525 1519 1515 1515 1516 1516 1516 1516 1517 1517 1516 1515 1515 1515 1516 1516 1517 1518 1518 1519 1520 1521 1522 1523 1523 1523 1522 1521 1521 1521 1521 1520 1521 1520 1521 1522 1509 1496 1501 1503 1500 1499 1497 1501 1502 1495 1487 1480 1472 1473 1478 1478 1477 1476 1475 1473 1471 1472 1472 1471 1470 1469
1537 1537 1536 1536 1536 1535 1534 1533 1533 1532 1531 1530 1529 1528 1527 1526 1525 1524 1523 1523 1523 1523 1522 1523 1522 1523 1522 1517 1514 1513 1512 1512 1513 1513 1514 1514 1513 1513 1512 1513 1513 1514 1515 1516 1516 1517 1518 1520 1521 1521 1521 1521 1521 1521 1522 1522 1520 1521 1522 1519 1521 1522 1510 1499 1498 1498 1497 1495 1496 1500 1497 1491 1486 1478 1472 1472 1475 1475 1474 1473 1473 1471 1468 1468 1468 1467 1466 1464
1536 1536 1535 1535 1534 1534 1533 1532 1532 1531 1530 1528 1527 1526 1525 1524 1523 1522 1521 1520 1520 1520 1520 1520 1519 1521 1520 1515 1512 1510 1509 1509 1510 1511 1511 1511 1511 1510 1510 1511 1511 1512 1513 1514 1515 1516 1517 1518 1519 1520 1520 1519 1521 1522 1524 1526 1523 1522 1523 1519 1517 1517 1514 1507 1495 1489 1491 1493 1495 1495 1489 1485 1480 1475 1472 1473 1472 1472 1472 1471 1469 1468 1465 1464 1463 1462 1462 1460
1536 1536 1535 1534 1534 1533 1532 1531 1531 1530 1529 1527 1526 1525 1523 1522 1521 1520 1519 1518 1518 1517 1518 1518 1517 1519 1517 1512 1510 1508 1507 1508 1508 1508 1508 1508 1508 1508 1508 1509 1510 1511 1512 1513 1514 1515 1516 1517 1518 1518 1519 1519 1521 1522 1527 1531 1525 1521 1521 1520 1517 1516 1514 1510 1497 1486 1489 1491 1491 1491 1488 1480 1475 1473 1473 1472 1471 1470 1468 1467 1465 1463 1461 1460 1458 1457 1457 1455
1535 1535 1534 1534 1533 1532 1532 1531 1530 1529 1528 1527 1525 1523 1522 1520 1519 1518 1517 1516 1516 1516 1516 1516 1517 1519 1513 1508 1508 1506 1506 1507 1506 1506 1506 1506 1506 1506 1507 1508 1509 1510 1511 1513 1513 1514 1515 1516 1517 1518 1519 1520 1520 1521 1525 1523 1516 1513 1514 1514 1515 1514 1513 1512 1501 1488 1487 1489 1489 1491 1487 1478 1474 1474 1473 1470 1471 1469 1464 1461 1460 1458 1456 1455 1453 1452 1450 1448
1535 1534 1534 1534 1533 1532 1531 1530 1529 1528 1527 1526 1524 1522 1520 1519 1518 1516 1516 1516 1516 1516 1516 1515 1515 1515 1510 1505 1506 1506 1505 1505 1504 1505 1504 1504 1504 1504 1506 1507 1508 1509 1511 1512 1512 1513 1514 1516 1518 1519 1519 1515 1511 1512 1512 1505 1503 1505 1507 1509 1510 1509 1508 1506 1498 1489 1489 1491 1490 1489 1480 1474 1474 1473 1471 1468 1467 1468 1461 1455 1453 1452 1451 1449 1448 1446 1444 1441
1534 1533 1533 1533 1532 1531 1530 1530 1529 1527 1526 1525 1523 1521 1519 1519 1517 1515 1515 1515 1515 1514 1513 1513 1511 1509 1506 1505 1505 1505 1503 1503 1503 1502 1502 1503 1503 1503 1504 1506 1507 1509 1509 1510 1511 1512 1513 1514 1515 1514 1510 1503 1500 1503 1504 1500 1503 1507 1509 1509 1508 1508 1503 1497 1493 1489 1492 1492 1486 1483 1473 1469 1470 1468 1468 1466 1463 1464 1460 1453 1448 1446 1445 1444 1443 1440 1438 1435
1533 1533 1532 1532 1531 1530 1530 1529 1528 1527 1526 1524 1523 1522 1521 1522 1521 1518 1515 1511 1511 1511 1509 1508 1508 1505 1503 1503 1503 1502 1501 1501 1500 1500 1500 1501 1502 1502 1503 1504 1507 1508 1508 1508 1510 1511 1511 1512 1510 1504 1498 1497 1499 1502 1504 1505 1507 1509 1510 1510 1509 1510 1502 1494 1492 1487 1491 1492 1483 1480 1473 1465 1467 1465 1464 1464 1460 1456 1452 1449 1446 1442 1440 1437 1437 1436 1432 1429
1532 1531 1531 1531 1530 1530 1529 1529 1528 1527 1526 1525 1524 1523 1523 1523 1523 1521 1517 1511 1506 1506 1505 1502 1501 1498 1497 1499 1498 1499 1500 1499 1497 1497 1498 1499 1500 1501 1501 1503 1505 1505 1507 1509 1509 1510 1511 1510 1505 1498 1496 1499 1501 1503 1505 1507 1509 1509 1511 1513 1510 1509 1500 1491 1491 1488 1491 1492 1482 1480 1472 1459 1462 1462 1458 1457 1453 1446 1442 1443 1445 1442 1437 1431 1430 1430 1426 1424
1531 1530 1531 1530 1530 1530 1529 1529 1528 1527 1526 1526 1525 1524 1524 1523 1521 1519 1518 1513 1504 1500 1498 1495 1494 1491 1491 1493 1493 1495 1496 1495 1494 1494 1496 1497 1498 1500 1500 1501 1504 1505 1507 1507 1505 1506 1507 1504 1498 1496 1498 1502 1502 1503 1506 1507 1509 1509 1510 1512 1507 1505 1501 1493 1490 1489 1491 1490 1483 1482 1469 1451 1453 1454 1449 1447 1442 1439 1439 1439 1441 1439 1434 1427 1422 1422 1423 1423
1530 1530 1530 1529 1529 1529 1528 1529 1528 1527 1526 1525 1525 1524 1523 1522 1521 1518 1517 1512 1502 1495 1491 1488 1488 1487 1486 1488 1489 1491 1492 1492 1493 1492 1493 1495 1497 1499 1498 1499 1503 1505 1505 1502 1500 1499 1496 1494 1494 1496 1499 1502 1503 1504 1507 1507 1506 1503 1505 1508 1502 1499 1499 1495 1493 1492 1491 1488 1484 1484 1465 1438 1437 1443 1439 1439 1439 1439 1439 1437 1434 1431 1427 1421 1417 1418 1422 1422
1529 1529 1528 1528 1528 1527 1528 1528 1527 1527 1526 1525 1525 1524 1523 1522 1520 1518 1516 1511 1501 1492 1486 1484 1485 1484 1484 1485 1487 1488 1489 1490 1490 1490 1492 1493 1494 1496 1497 1498 1501 1501 1501 1501 1502 1498 1493 1493 1494 1496 1499 1502 1504 1504 1506 1507 1502 1497 1500 1502 1496 1493 1496 1496 1496 1497 1495 1490 1487 1489 1472 1437 1429 1440 1438 1434 1438 1437 1436 1435 1429 1423 1416 1413 1416 1419 1419 1419
1527 1527 1527 1527 1526 1526 1527 1526 1526 1527 1525 1526 1525 1524 1524 1522 1520 1519 1517 1515 1503 1488 1483 1484 1484 1483 1483 1484 1485 1487 1489 1489 1488 1489 1490 1491 1493 1494 1496 1497 1497 1497 1498 1500 1502 1498 1493 1492 1492 1494 1497 1500 1505 1505 1503 1503 1502 1498 1495 1494 1492 1494 1498 1497 1498 1501 1497 1490 1489 1493 1486 1458 1434 1434 1436 1433 1435 1434 1431 1431 1423 1414 1410 1411 1418 1419 1417 1417
1525 1525 1525 1525 1524 1525 1525 1525 1525 1525 1525 1525 1524 1524 1524 1521 1523 1520 1517 1519 1504 1484 1482 1484 1483 1483 1483 1484 1485 1486 1489 1488 1487 1488 1488 1490 1492 1493 1494 1495 1495 1495 1495 1499 1499 1493 1488 1490 1491 1493 1496 1500 1504 1501 1495 1498 1503 1497 1491 1490 1491 1493 1495 1497 1499 1501 1497 1492 1491 1489 1491 1484 1452 1430 1433 1433 1433 1434 1430 1426 1418 1412 1413 1416 1418 1417 1416 1416
1523 1523 1523 1523 1522 1523 1523 1523 1523 1524 1524 1524 1523 1524 1523 1522 1524 1519 1523 1527 1502 1480 1483 1484 1483 1484 1483 1484 1485 1485 1487 1486 1487 1488 1488 1490 1491 1492 1494 1493 1495 1494 1494 1497 1495 1487 1485 1488 1489 1491 1496 1500 1497 1491 1489 1495 1497 1491 1491 1493 1492 1493 1495 1497 1498 1500 1502 1497 1493 1487 1488 1492 1462 1429 1433 1437 1434 1434 1427 1420 1415 1413 1417 1417 1416 1416 1415 1416
1520 1520 1520 1521 1520 1521 1521 1522 1522 1522 1523 1523 1523 1523 1522 1523 1522 1520 1531 1529 1496 1478 1485 1484 1483 1485 1483 1485 1486 1485 1486 1485 1486 1488 1488 1490 1490 1491 1493 1492 1494 1494 1494 1494 1490 1486 1486 1486 1486 1488 1492 1491 1486 1485 1487 1490 1489 1488 1492 1493 1493 1496 1496 1499 1498 1497 1504 1497 1488 1487 1486 1486 1457 1422 1429 1440 1435 1430 1421 1418 1417 1415 1417 1416 1414 1415 1415 1416
1518 1518 1518 1518 1518 1519 1519 1520 1521 1521 1521 1522 1522 1522 1523 1523 1522 1527 1534 1518 1492 1485 1486 1483 1484 1486 1484 1486 1486 1485 1486 1485 1485 1487 1487 1489 1489 1490 1491 1491 1492 1493 1493 1494 1490 1487 1486 1487 1488 1486 1483 1481 1482 1487 1488 1486 1487 1488 1490 1490 1491 1496 1495 1500 1499 1496 1501 1491 1477 1478 1479 1481 1461 1427 1426 1433 1427 1425 1421 1419 1418 1414 1414 1414 1413 1414 1415 1416
1516 1516 1516 1516 1516 1517 1517 1519 1520 1520 1520 1521 1521 1522 1523 1522 1525 1531 1522 1502 1493 1490 1484 1485 1488 1487 1486 1486 1486 1485 1485 1484 1485 1486 1486 1488 1489 1490 1491 1490 1491 1493 1492 1491 1489 1486 1486 1487 1486 1480 1478 1480 1481 1486 1488 1488 1489 1488 1489 1489 1489 1492 1493 1498 1500 1499 1500 1484 1469 1471 1474 1477 1461 1430 1424 1427 1424 1427 1424 1420 1418 1414 1413 1413 1414 1415 1416 1416
1513 1513 1514 1514 1514 1515 1516 1517 1517 1518 1519 1519 1521 1521 1523 1526 1526 1520 1507 1496 1496 1490 1484 1488 1490 1487 1489 1488 1486 1486 1486 1485 1484 1485 1486 1488 1490 1488 1489 1488 1488 1491 1490 1487 1485 1482 1480 1480 1480 1477 1477 1479 1479 1484 1489 1490 1489 1489 1490 1492 1494 1497 1496 1496 1498 1500 1497 1480 1470 1474 1477 1473 1450 1425 1425 1427 1422 1422 1422 1420 1419 1417 1415 1414 1414 1416 1415 1416
1510 1510 1511 1511 1511 1513 1514 1515 1516 1517 1517 1518 1521 1520 1524 1530 1519 1504 1500 1498 1494 1487 1485 1488 1488 1489 1490 1488 1486 1486 1486 1484 1482 1484 1485 1488 1490 1487 1486 1486 1485 1487 1488 1487 1487 1482 1476 1474 1477 1478 1475 1474 1475 1479 1482 1481 1484 1488 1486 1488 1494 1497 1497 1494 1494 1497 1489 1473 1471 1479 1478 1466 1443 1425 1423 1420 1416 1416 1417 1419 1418 1417 1417 1415 1415 1416 1415 1416
1507 1508 1508 1508 1509 1510 1511 1513 1514 1515 1516 1518 1519 1521 1526 1524 1507 1497 1499 1496 1490 1487 1486 1488 1489 1489 1489 1487 1486 1485 1485 1483 1482 1484 1485 1487 1489 1485 1482 1484 1485 1485 1486 1489 1489 1486 1483 1476 1473 1473 1471 1471 1472 1471 1471 1471 1478 1483 1478 1479 1483 1480 1481 1481 1477 1475 1469 1462 1472 1482 1474 1455 1437 1423 1417 1415 1414 1415 1416 1416 1416 1416 1416 1416 1416 1416 1415 1415
1505 1504 1505 1505 1506 1508 1509 1511 1512 1513 1516 1516 1518 1522 1520 1509 1499 1498 1497 1492 1490 1489 1487 1488 1488 1488 1488 1486 1485 1483 1483 1482 1483 1485 1485 1485 1485 1480 1478 1480 1482 1484 1487 1490 1486 1485 1486 1476 1467 1470 1469 1469 1470 1467 1468 1471 1475 1479 1478 1478 1477 1469 1467 1468 1464 1461 1462 1465 1470 1472 1461 1443 1428 1417 1414 1416 1415 1414 1415 1415 1415 1415 1414 1415 1414 1414 1414 1415
1501 1501 1501 1501 1502 1506 1507 1508 1510 1512 1513 1514 1518 1516 1505 1496 1495 1495 1491 1488 1489 1488 1487 1489 1487 1487 1487 1483 1483 1483 1481 1482 1484 1484 1483 1484 1482 1480 1478 1476 1477 1479 1481 1483 1480 1478 1480 1472 1466 1470 1468 1468 1469 1467 1469 1471 1471 1478 1480 1475 1470 1468 1466 1467 1467 1463 1468 1472 1460 1451 1447 1436 1426 1416 1411 1414 1413 1411 1413 1413 1413 1414 1412 1413 1412 1412 1413 1413
1498 1497 1497 1497 1499 1503 1504 1505 1508 1510 1511 1513 1512 1504 1493 1490 1489 1489 1487 1487 1487 1487 1489 1491 1486 1484 1484 1482 1481 1482 1482 1482 1483 1482 1482 1483 1479 1475 1476 1473 1473 1473 1472 1474 1474 1473 1474 1469 1463 1465 1465 1465 1468 1468 1468 1469 1469 1474 1475 1468 1466 1468 1466 1469 1474 1471 1472 1472 1456 1444 1440 1436 1434 1423 1411 1411 1410 1408 1410 1411 1412 1411 1410 1411 1410 1410 1412 1413
1494 1494 1493 1493 1496 1499 1500 1502 1505 1507 1509 1509 1505 1495 1489 1487 1485 1484 1486 1487 1487 1487 1489 1492 1486 1481 1482 1482 1480 1480 1481 1481 1483 1483 1482 1480 1474 1469 1471 1470 1469 1471 1469 1471 1474 1473 1474 1472 1463 1462 1466 1466 1467 1468 1467 1467 1468 1468 1468 1467 1468 1471 1467 1468 1474 1473 1472 1470 1458 1447 1442 1439 1437 1425 1412 1411 1409 1406 1409 1411 1411 1410 1409 1409 1408 1409 1411 1411
1491 1491 1490 1490 1492 1493 1495 1499 1501 1504 1506 1503 1498 1492 1486 1484 1483 1484 1485 1485 1487 1488 1489 1489 1486 1483 1482 1481 1480 1479 1480 1480 1482 1482 1480 1478 1472 1467 1467 1468 1468 1471 1470 1472 1475 1474 1476 1477 1469 1464 1467 1467 1466 1467 1467 1466 1467 1468 1469 1468 1469 1470 1468 1467 1468 1467 1465 1463 1456 1449 1444 1437 1428 1417 1411 1411 1408 1406 1409 1411 1411 1411 1409 1408 1408 1409 1409 1408
1489 1490 1489 1488 1489 1489 1491 1496 1499 1500 1499 1494 1491 1487 1483 1483 1483 1483 1484 1485 1485 1487 1487 1486 1485 1485 1481 1480 1480 1480 1480 1480 1479 1480 1478 1475 1471 1467 1466 1467 1468 1471 1472 1472 1475 1476 1478 1479 1474 1467 1467 1469 1466 1462 1461 1461 1462 1466 1468 1469 1469 1469 1469 1469 1467 1463 1461 1460 1455 1450 1443 1431 1419 1411 1408 1409 1410 1410 1411 1410 1410 1409 1409 1409 1409 1409 1409 1408
1488 1489 1488 1487 1487 1487 1490 1494 1495 1494 1492 1489 1487 1485 1483 1483 1482 1481 1483 1484 1484 1484 1484 1484 1484 1483 1482 1481 1480 1479 1480 1479 1478 1478 1477 1473 1472 1470 1467 1465 1466 1469 1472 1473 1474 1476 1477 1476 1474 1471 1467 1464 1458 1454 1455 1455 1455 1459 1460 1461 1464 1465 1468 1472 1467 1459 1458 1457 1451 1448 1441 1427 1416 1411 1407 1407 1410 1411 1412 1411 1410 1408 1408 1409 1409 1409 1410 1409
1487 1488 1487 1486 1486 1487 1488 1491 1490 1489 1488 1486 1484 1483 1483 1483 1481 1481 1482 1482 1483 1483 1482 1482 1482 1481 1481 1480 1480 1479 1480 1479 1476 1476 1475 1471 1471 1470 1466 1466 1467 1468 1469 1470 1469 1470 1471 1472 1472 1469 1462 1455 1450 1450 1453 1453 1452 1455 1456 1455 1457 1457 1461 1466 1461 1453 1451 1448 1443 1443 1439 1425 1415 1413 1410 1408 1408 1409 1411 1413 1410 1408 1408 1409 1410 1411 1410 1410
1486 1486 1485 1485 1487 1487 1488 1489 1487 1486 1485 1482 1481 1481 1482 1482 1481 1481 1480 1481 1482 1482 1481 1480 1479 1479 1478 1477 1478 1478 1478 1477 1474 1472 1471 1470 1469 1469 1468 1467 1468 1468 1468 1469 1469 1468 1471 1473 1470 1464 1456 1450 1447 1447 1451 1453 1454 1455 1454 1454 1455 1453 1451 1452 1452 1450 1449 1446 1443 1443 1436 1424 1417 1415 1413 1411 1409 1409 1411 1413 1413 1413 1413 1414 1414 1413 1412 1412
1485 1484 1484 1485 1486 1486 1486 1485 1483 1483 1483 1482 1482 1482 1481 1481 1480 1479 1479 1480 1480 1480 1480 1478 1477 1476 1475 1474 1475 1476 1476 1476 1472 1469 1470 1470 1469 1470 1470 1468 1469 1470 1472 1474 1473 1473 1474 1473 1470 1468 1463 1457 1452 1449 1450 1454 1456 1457 1454 1452 1453 1453 1452 1451 1452 1454 1452 1447 1445 1442 1432 1422 1418 1417 1415 1414 1412 1410 1412 1417 1421 1421 1421 1419 1417 1415 1414 1412
1485 1484 1483 1483 1483 1483 1482 1480 1480 1481 1481 1481 1482 1481 1481 1480 1477 1476 1477 1478 1478 1478 1478 1477 1475 1475 1474 1474 1475 1475 1475 1476 1475 1472 1471 1470 1469 1470 1470 1470 1471 1472 1475 1476 1474 1475 1476 1471 1468 1469 1467 1462 1458 1453 1450 1451 1455 1456 1455 1452 1452 1453 1454 1454 1453 1453 1448 1439 1437 1436 1428 1420 1419 1418 1416 1416 1416 1415 1417 1423 1425 1426 1426 1424 1421 1419 1417 1414
1484 1484 1482 1481 1481 1480 1479 1478 1480 1481 1480 1480 1479 1478 1478 1477 1473 1474 1475 1474 1474 1475 1475 1475 1474 1475 1476 1475 1475 1475 1473 1474 1475 1473 1472 1471 1470 1471 1471 1471 1472 1473 1474 1474 1473 1474 1476 1472 1467 1465 1463 1459 1455 1451 1449 1452 1454 1455 1454 1452 1452 1452 1452 1453 1453 1450 1444 1437 1432 1429 1426 1424 1422 1420 1421 1426 1429 1428 1426 1428 1428 1428 1428 1427 1425 1423 1421 1418
1485 1484 1482 1481 1481 1479 1478 1478 1480 1480 1479 1479 1477 1474 1474 1473 1472 1473 1472 1472 1471 1472 1473 1472 1472 1474 1474 1473 1474 1474 1471 1472 1473 1472 1473 1473 1472 1472 1472 1471 1472 1473 1472 1473 1474 1474 1476 1474 1468 1464 1463 1460 1457 1455 1454 1455 1455 1455 1454 1453 1452 1451 1450 1452 1451 1445 1442 1439 1431 1426 1428 1429 1425 1426 1433 1439 1439 1437 1435 1434 1433 1432 1430 1428 1426 1424 1421 1419
1484 1483 1481 1482 1482 1481 1479 1480 1480 1479 1479 1479 1478 1475 1473 1472 1473 1473 1473 1471 1471 1471 1472 1471 1471 1473 1473 1473 1474 1474 1472 1472 1472 1472 1475 1476 1475 1474 1471 1470 1472 1472 1472 1473 1474 1475 1478 1476 1468 1464 1464 1462 1462 1460 1458 1457 1456 1454 1455 1454 1452 1450 1449 1448 1444 1439 1441 1440 1432 1428 1432 1429 1426 1434 1444 1445 1442 1440 1439 1438 1436 1434 1432 1429 1426 1424 1422 1420
1482 1482 1481 1482 1482 1481 1481 1481 1481 1480 1480 1480 1479 1476 1474 1473 1473 1473 1474 1473 1472 1471 1472 1471 1472 1475 1476 1475 1475 1474 1473 1472 1472 1474 1476 1477 1477 1475 1473 1472 1471 1472 1472 1474 1474 1475 1478 1473 1465 1464 1466 1464 1464 1462 1459 1458 1456 1454 1453 1452 1450 1449 1446 1443 1440 1438 1439 1435 1428 1429 1430 1427 1432 1442 1446 1444 1443 1442 1440 1438 1436 1434 1431 1429 1427 1425 1424 1423
1482 1482 1482 1481 1482 1481 1481 1481 1481 1481 1480 1479 1478 1475 1473 1474 1474 1473 1474 1474 1473 1472 1471 1473 1475 1477 1478 1478 1476 1475 1473 1474 1475 1476 1477 1479 1477 1476 1477 1475 1473 1473 1474 1475 1475 1474 1475 1471 1464 1465 1469 1465 1460 1458 1457 1457 1455 1452 1450 1449 1448 1445 1441 1440 1438 1435 1431 1427 1425 1425 1423 1425 1438 1446 1445 1443 1443 1440 1438 1436 1434 1433 1431 1429 1428 1426 1425 1424
1481 1482 1482 1482 1482 1480 1480 1481 1481 1481 1480 1478 1477 1475 1473 1474 1475 1475 1474 1473 1473 1473 1474 1476 1478 1479 1479 1479 1478 1477 1475 1475 1476 1476 1476 1478 1477 1476 1478 1476 1474 1475 1475 1474 1475 1474 1474 1472 1467 1469 1471 1464 1456 1455 1454 1452 1453 1452 1449 1446 1442 1439 1437 1433 1429 1426 1425 1425 1424 1422 1422 1429 1440 1443 1443 1443 1442 1439 1438 1436 1434 1432 1431 1429 1427 1426 1425 1424
1481 1481 1481 1483 1482 1480 1479 1481 1481 1481 1479 1476 1476 1476 1475 1476 1476 1477 1476 1473 1473 1475 1476 1478 1478 1479 1480 1479 1478 1477 1476 1475 1476 1476 1476 1476 1475 1475 1476 1474 1474 1476 1474 1473 1474 1473 1473 1472 1470 1471 1470 1461 1455 1454 1453 1455 1457 1451 1442 1437 1433 1431 1429 1426 1424 1428 1432 1432 1430 1429 1432 1439 1442 1441 1441 1441 1439 1438 1437 1435 1433 1432 1430 1429 1428 1427 1425 1424